CPA828 VHHH-CYYZ

Flight info

Callsign CPA828
Flight time N/A
Altitude 33000
Route DALOL1Y DALOL V631 ENVAR M750 IMPAL Y755 CARDS DCT HIOTI DCT CBE Y121 SWING Y88 DAIGO Y889 OATIS R580 ONEIL/N0497F350 R580 OBOYD DCT PORGE A590 HAMND DCT AMOTT DCT YESKA NCA13 JAGIT/N0495F370 DCT YXY DCT 60N130W DCT YOJ DCT PETMA DCT 54N100W 4930N09000W/N0497F390 DCT OTNIK BOXUM7
Aircraft A35K/H-VGDW/C

Departure

Time 2026-05-06 22:02
Airport Hong Kong International Airport (VHHH)

Arrival

Time N/A
Airport Toronto Pearson International Airport (CYYZ)
Time Latitude Longitude Altitude Speed Heading
2026-05-06 21:03 22.31322 113.93038 37 ft 0 kts 339°
2026-05-06 21:46 22.31299 113.93048 35 ft 4 kts 332°
2026-05-06 21:46 22.31276 113.93063 34 ft 4 kts 323°
2026-05-06 21:46 22.31259 113.93077 33 ft 0 kts 324°
2026-05-06 21:51 22.31259 113.93075 37 ft 2 kts 315°
2026-05-06 21:52 22.31255 113.93058 37 ft 5 kts 242°
2026-05-06 21:52 22.31218 113.93012 37 ft 13 kts 232°
2026-05-06 21:52 22.31162 113.92901 37 ft 21 kts 230°
2026-05-06 21:52 22.31023 113.92820 36 ft 21 kts 206°
2026-05-06 21:53 22.30917 113.92764 37 ft 17 kts 206°
2026-05-06 21:53 22.30827 113.92685 36 ft 17 kts 246°
2026-05-06 21:53 22.30787 113.92560 36 ft 18 kts 251°
2026-05-06 21:53 22.30748 113.92425 37 ft 19 kts 253°
2026-05-06 21:54 22.30703 113.92284 37 ft 21 kts 251°
2026-05-06 21:54 22.30651 113.92139 37 ft 21 kts 248°
2026-05-06 21:54 22.30600 113.91985 37 ft 22 kts 251°
2026-05-06 21:54 22.30548 113.91821 36 ft 23 kts 255°
2026-05-06 21:55 22.30631 113.91710 36 ft 22 kts 344°
2026-05-06 21:55 22.30777 113.91679 36 ft 21 kts 335°
2026-05-06 21:55 22.30909 113.91612 36 ft 21 kts 337°
2026-05-06 21:55 22.31048 113.91555 36 ft 22 kts 340°
2026-05-06 21:56 22.31195 113.91497 36 ft 23 kts 340°
2026-05-06 21:56 22.31347 113.91448 36 ft 23 kts 344°
2026-05-06 21:56 22.31400 113.91338 35 ft 19 kts 259°
2026-05-06 21:56 22.31361 113.91201 37 ft 20 kts 250°
2026-05-06 21:57 22.31314 113.91055 36 ft 21 kts 251°
2026-05-06 21:57 22.31264 113.90899 36 ft 23 kts 251°
2026-05-06 21:57 22.31212 113.90738 36 ft 24 kts 251°
2026-05-06 21:57 22.31156 113.90563 36 ft 25 kts 251°
2026-05-06 21:58 22.31100 113.90388 36 ft 25 kts 251°
2026-05-06 21:58 22.31040 113.90202 36 ft 26 kts 250°
2026-05-06 21:58 22.30979 113.90019 36 ft 26 kts 251°
2026-05-06 21:58 22.30933 113.89876 36 ft 13 kts 251°
2026-05-06 21:59 22.30906 113.89785 36 ft 12 kts 255°
2026-05-06 21:59 22.30919 113.89715 36 ft 1 kts 310°
2026-05-06 22:00 22.30925 113.89709 36 ft 4 kts 316°
2026-05-06 22:00 22.30975 113.89678 35 ft 12 kts 343°
2026-05-06 22:01 22.31064 113.89720 35 ft 18 kts 55°
2026-05-06 22:01 22.31142 113.89950 36 ft 64 kts 71°
2026-05-06 22:01 22.31369 113.90659 35 ft 134 kts 71°
2026-05-06 22:01 22.31754 113.91809 99 ft 185 kts 71°
2026-05-06 22:02 22.32222 113.93119 801 ft 192 kts 70°
2026-05-06 22:02 22.32765 113.94517 1386 ft 215 kts 69°
2026-05-06 22:02 22.33292 113.96139 1859 ft 241 kts 76°
2026-05-06 22:02 22.33627 113.97933 2815 ft 245 kts 82°
2026-05-06 22:03 22.33894 113.99762 3800 ft 249 kts 83°
2026-05-06 22:03 22.34175 114.01650 4580 ft 260 kts 82°
2026-05-06 22:03 22.34368 114.03624 5308 ft 267 kts 93°
2026-05-06 22:03 22.33989 114.05577 5880 ft 268 kts 117°
2026-05-06 22:04 22.32896 114.07188 6512 ft 267 kts 141°
2026-05-06 22:04 22.31335 114.08267 7101 ft 268 kts 160°
2026-05-06 22:04 22.30454 114.08589 7393 ft 269 kts 169°
2026-05-06 22:04 22.28592 114.08808 7998 ft 272 kts 182°
2026-05-06 22:05 22.26666 114.08781 8534 ft 281 kts 184°
2026-05-06 22:05 22.24687 114.08731 9134 ft 287 kts 184°
2026-05-06 22:05 22.22669 114.08691 9772 ft 292 kts 184°
2026-05-06 22:05 22.20624 114.08660 10226 ft 297 kts 184°
2026-05-06 22:06 22.18515 114.08693 10423 ft 311 kts 177°
2026-05-06 22:06 22.16402 114.09411 10564 ft 330 kts 150°
2026-05-06 22:06 22.14715 114.11157 10737 ft 347 kts 124°
2026-05-06 22:06 22.13552 114.13487 10935 ft 359 kts 117°
2026-05-06 22:07 22.12461 114.15950 11122 ft 370 kts 117°
2026-05-06 22:07 22.11318 114.18481 11302 ft 380 kts 117°
2026-05-06 22:07 22.10124 114.21064 11479 ft 389 kts 118°
2026-05-06 22:07 22.08884 114.23697 11654 ft 398 kts 119°
2026-05-06 22:08 22.07344 114.26196 11807 ft 405 kts 133°
2026-05-06 22:08 22.05229 114.28217 11976 ft 409 kts 145°
2026-05-06 22:08 22.02925 114.30039 12271 ft 412 kts 146°
2026-05-06 22:08 22.00593 114.31854 12581 ft 415 kts 146°
2026-05-06 22:09 21.98252 114.33684 12906 ft 418 kts 146°
2026-05-06 22:09 21.95893 114.35534 13189 ft 421 kts 146°
2026-05-06 22:09 21.93527 114.37399 13495 ft 423 kts 146°
2026-05-06 22:09 21.91138 114.39276 13806 ft 425 kts 146°
2026-05-06 22:10 21.88747 114.41154 14129 ft 426 kts 146°
2026-05-06 22:10 21.86427 114.43153 14367 ft 430 kts 137°
2026-05-06 22:10 21.84615 114.45727 14616 ft 435 kts 118°
2026-05-06 22:10 21.83534 114.48774 14891 ft 438 kts 107°
2026-05-06 22:11 21.82731 114.51944 15157 ft 440 kts 105°
2026-05-06 22:11 21.81944 114.55130 15421 ft 441 kts 105°
2026-05-06 22:11 21.81142 114.58324 15670 ft 443 kts 105°
2026-05-06 22:11 21.80326 114.61530 15939 ft 444 kts 106°
2026-05-06 22:12 21.79514 114.64696 16206 ft 445 kts 106°
2026-05-06 22:12 21.78673 114.67957 16465 ft 447 kts 106°
2026-05-06 22:12 21.77839 114.71181 16735 ft 448 kts 106°
2026-05-06 22:12 21.77000 114.74417 16975 ft 450 kts 106°
2026-05-06 22:13 21.76168 114.77622 17202 ft 452 kts 106°
2026-05-06 22:13 21.75322 114.80879 17496 ft 452 kts 106°
2026-05-06 22:13 21.74566 114.84170 17702 ft 455 kts 99°
2026-05-06 22:13 21.74237 114.87559 17921 ft 456 kts 93°
2026-05-06 22:14 21.74148 114.90972 18200 ft 457 kts 90°
2026-05-06 22:14 21.74171 114.94400 18361 ft 460 kts 89°
2026-05-06 22:14 21.74233 114.97837 18608 ft 460 kts 89°
2026-05-06 22:14 21.74292 115.01283 18786 ft 462 kts 89°
2026-05-06 22:15 21.74334 115.04756 18923 ft 465 kts 89°
2026-05-06 22:15 21.74356 115.08237 19141 ft 466 kts 89°
2026-05-06 22:15 21.74364 115.11728 19328 ft 467 kts 90°
2026-05-06 22:15 21.74362 115.15222 19551 ft 468 kts 90°
2026-05-06 22:16 21.74356 115.18735 19722 ft 470 kts 90°
2026-05-06 22:16 21.74348 115.22252 19934 ft 471 kts 90°
2026-05-06 22:16 21.74343 115.25777 20141 ft 472 kts 90°
2026-05-06 22:16 21.74335 115.29313 20312 ft 474 kts 90°
2026-05-06 22:17 21.74325 115.32858 20539 ft 474 kts 90°
2026-05-06 22:17 21.74316 115.36408 20764 ft 475 kts 90°
2026-05-06 22:17 21.74305 115.39962 21038 ft 475 kts 90°
2026-05-06 22:17 21.74295 115.43520 21208 ft 477 kts 90°
2026-05-06 22:18 21.74284 115.47095 21408 ft 478 kts 90°
2026-05-06 22:18 21.74272 115.50664 21661 ft 479 kts 90°
2026-05-06 22:18 21.74259 115.54261 21806 ft 482 kts 90°
2026-05-06 22:18 21.74246 115.57863 22082 ft 481 kts 90°
2026-05-06 22:19 21.74231 115.61471 22244 ft 484 kts 90°
2026-05-06 22:19 21.74216 115.65099 22513 ft 483 kts 90°
2026-05-06 22:19 21.74203 115.68714 22760 ft 485 kts 88°
2026-05-06 22:19 21.74197 115.72296 22928 ft 487 kts 90°
2026-05-06 22:20 21.74184 115.75934 23220 ft 486 kts 90°
2026-05-06 22:20 21.74166 115.79588 23312 ft 491 kts 90°
2026-05-06 22:20 21.74147 115.83256 23628 ft 489 kts 91°
2026-05-06 22:20 21.74126 115.86923 23719 ft 493 kts 90°
2026-05-06 22:21 21.74105 115.90616 23939 ft 493 kts 90°
2026-05-06 22:21 21.74084 115.94303 24129 ft 494 kts 90°
2026-05-06 22:21 21.74063 115.98006 24288 ft 496 kts 90°
2026-05-06 22:21 21.74042 116.01712 24543 ft 496 kts 90°
2026-05-06 22:22 21.74019 116.05442 24644 ft 499 kts 90°
2026-05-06 22:22 21.73996 116.09167 24917 ft 499 kts 90°
2026-05-06 22:22 21.73971 116.12909 25042 ft 502 kts 90°
2026-05-06 22:22 21.73946 116.16663 25303 ft 502 kts 90°
2026-05-06 22:23 21.73919 116.20426 25490 ft 504 kts 90°
2026-05-06 22:23 21.73892 116.24205 25681 ft 506 kts 90°
2026-05-06 22:23 21.73864 116.27989 25924 ft 507 kts 90°
2026-05-06 22:23 21.73834 116.31791 26083 ft 510 kts 90°
2026-05-06 22:24 21.73804 116.35607 26347 ft 510 kts 90°
2026-05-06 22:24 21.73773 116.39435 26537 ft 513 kts 90°
2026-05-06 22:24 21.73742 116.43269 26810 ft 514 kts 90°
2026-05-06 22:24 21.73708 116.47124 27010 ft 516 kts 90°
2026-05-06 22:25 21.73674 116.50990 27245 ft 517 kts 90°
2026-05-06 22:25 21.73639 116.54868 27464 ft 520 kts 90°
2026-05-06 22:25 21.73603 116.58758 27659 ft 522 kts 90°
2026-05-06 22:25 21.73579 116.62664 27887 ft 523 kts 89°
2026-05-06 22:26 21.73566 116.66584 28093 ft 525 kts 89°
2026-05-06 22:26 21.73550 116.70512 28298 ft 526 kts 89°
2026-05-06 22:26 21.73576 116.74455 28493 ft 528 kts 86°
2026-05-06 22:26 21.73989 116.78374 28697 ft 528 kts 78°
2026-05-06 22:27 21.74924 116.82201 28843 ft 529 kts 69°
2026-05-06 22:27 21.76154 116.85933 29063 ft 530 kts 67°
2026-05-06 22:27 21.77480 116.89629 29312 ft 529 kts 66°
2026-05-06 22:27 21.78846 116.93308 29573 ft 529 kts 65°
2026-05-06 22:28 21.80199 116.96930 29816 ft 529 kts 65°
2026-05-06 22:28 21.81566 117.00611 30058 ft 529 kts 66°
2026-05-06 22:28 21.82918 117.04287 30266 ft 528 kts 66°
2026-05-06 22:28 21.84261 117.07971 30445 ft 528 kts 66°
2026-05-06 22:29 21.85595 117.11653 30656 ft 528 kts 66°
2026-05-06 22:29 21.86924 117.15338 30833 ft 528 kts 66°
2026-05-06 22:29 21.88252 117.19026 31001 ft 528 kts 66°
2026-05-06 22:29 21.89580 117.22718 31141 ft 529 kts 66°
2026-05-06 22:30 21.90909 117.26418 31320 ft 529 kts 66°
2026-05-06 22:30 21.92234 117.30106 31508 ft 528 kts 66°
2026-05-06 22:30 21.93558 117.33796 31699 ft 528 kts 65°
2026-05-06 22:30 21.94884 117.37490 31804 ft 530 kts 65°
2026-05-06 22:31 21.96213 117.41195 31938 ft 530 kts 65°
2026-05-06 22:31 21.97542 117.44904 32113 ft 530 kts 65°
2026-05-06 22:31 21.98913 117.48582 32294 ft 528 kts 61°
2026-05-06 22:31 22.00617 117.52072 32400 ft 526 kts 56°
2026-05-06 22:32 22.02462 117.55475 32509 ft 526 kts 55°
2026-05-06 22:32 22.04356 117.58851 32677 ft 526 kts 54°
2026-05-06 22:32 22.06271 117.62210 32824 ft 525 kts 54°
2026-05-06 22:32 22.08190 117.65559 32949 ft 526 kts 54°
2026-05-06 22:33 22.12046 117.72300 32990 ft 531 kts 54°
2026-05-06 22:33 22.15848 117.79011 32995 ft 518 kts 54°
2026-05-06 22:34 22.19588 117.85631 32995 ft 519 kts 53°
2026-05-06 22:34 22.23377 117.92323 32994 ft 525 kts 54°
2026-05-06 22:35 22.27206 117.99103 32992 ft 531 kts 54°
2026-05-06 22:35 22.31084 118.05889 32991 ft 531 kts 53°
2026-05-06 22:36 22.34367 118.11487 32993 ft 531 kts 53°
2026-05-06 22:36 22.38964 118.19327 32999 ft 531 kts 52°
2026-05-06 22:37 22.42246 118.24987 32992 ft 531 kts 53°
2026-05-06 22:37 22.46100 118.31794 32990 ft 531 kts 53°
2026-05-06 22:38 22.49942 118.38618 32993 ft 531 kts 53°
2026-05-06 22:38 22.53788 118.45438 32990 ft 531 kts 53°
2026-05-06 22:39 22.57634 118.52251 32996 ft 530 kts 53°
2026-05-06 22:39 22.61499 118.59043 32991 ft 530 kts 53°
2026-05-06 22:40 22.65375 118.65834 32993 ft 530 kts 53°
2026-05-06 22:40 22.69220 118.72587 32988 ft 530 kts 53°
2026-05-06 22:41 22.75014 118.82795 32990 ft 530 kts 53°
2026-05-06 22:42 22.89666 119.08695 32988 ft 527 kts 54°
2026-05-06 22:42 23.04936 119.35834 32981 ft 524 kts 54°
2026-05-06 22:43 23.20063 119.62864 32978 ft 523 kts 54°
2026-05-06 22:43 23.35171 119.89894 32995 ft 520 kts 51°
2026-05-06 22:43 23.44881 120.01223 32985 ft 511 kts 39°
2026-05-06 22:44 23.55203 120.11873 32981 ft 510 kts 39°
2026-05-06 22:44 23.75759 120.33146 32993 ft 509 kts 39°
2026-05-06 22:45 23.96205 120.54428 33004 ft 506 kts 38°
2026-05-06 22:45 24.16425 120.75826 33024 ft 503 kts 38°
2026-05-06 22:46 24.36501 120.97140 33040 ft 502 kts 38°
2026-05-06 22:46 24.54720 121.20662 33048 ft 507 kts 45°
2026-05-06 22:47 24.72200 121.44859 33035 ft 505 kts 45°
2026-05-06 22:47 24.89665 121.69168 32993 ft 506 kts 45°
2026-05-06 22:48 25.07904 121.92397 33007 ft 500 kts 43°
2026-05-06 22:48 25.25948 122.15699 33012 ft 500 kts 43°
2026-05-06 22:49 25.43912 122.39101 33020 ft 501 kts 43°
2026-05-06 22:49 25.62010 122.62684 33030 ft 500 kts 43°
2026-05-06 22:50 25.80214 122.86435 33016 ft 501 kts 43°
2026-05-06 22:50 25.98410 123.10320 33017 ft 505 kts 44°
2026-05-06 22:51 26.16572 123.34278 33019 ft 511 kts 45°
2026-05-06 22:51 26.34785 123.58449 33022 ft 506 kts 45°
2026-05-06 22:52 26.52939 123.82653 33032 ft 515 kts 47°
2026-05-06 22:52 26.71296 124.07268 33032 ft 524 kts 48°
2026-05-06 22:53 26.90071 124.32440 33036 ft 536 kts 51°
2026-05-06 22:53 27.09293 124.58382 33035 ft 546 kts 53°
2026-05-06 22:54 27.28750 124.84779 33032 ft 555 kts 53°
2026-05-06 22:54 27.48482 125.11586 33034 ft 558 kts 52°
2026-05-06 22:55 27.68331 125.38435 33033 ft 555 kts 53°
2026-05-06 22:55 27.88082 125.65360 33034 ft 559 kts 53°
2026-05-06 22:56 28.07978 125.92652 33040 ft 563 kts 53°
2026-05-06 22:56 28.27890 126.20142 33061 ft 566 kts 53°
2026-05-06 22:57 28.47878 126.47921 33046 ft 568 kts 54°
2026-05-06 22:57 28.67772 126.75753 33027 ft 568 kts 54°
2026-05-06 22:58 28.87585 127.03652 33036 ft 563 kts 54°
2026-05-06 22:58 29.07181 127.31429 33039 ft 557 kts 54°
2026-05-06 22:59 29.26554 127.59081 33040 ft 559 kts 55°
2026-05-06 22:59 29.46127 127.87212 33051 ft 569 kts 55°
2026-05-06 23:00 29.65873 128.15761 33065 ft 573 kts 55°
2026-05-06 23:00 29.85544 128.44391 33045 ft 575 kts 55°
2026-05-06 23:01 30.05438 128.73554 33051 ft 577 kts 55°
2026-05-06 23:01 30.25181 129.02718 33045 ft 576 kts 55°
2026-05-06 23:02 30.44862 129.31985 33048 ft 576 kts 54°
2026-05-06 23:02 30.64492 129.61405 33057 ft 579 kts 54°
2026-05-06 23:03 30.84017 129.90969 33059 ft 569 kts 58°
2026-05-06 23:03 31.00653 130.22072 33086 ft 571 kts 61°
2026-05-06 23:04 31.17493 130.54011 33081 ft 583 kts 61°
2026-05-06 23:04 31.34388 130.86323 33094 ft 584 kts 61°
2026-05-06 23:05 31.51136 131.18641 33114 ft 580 kts 62°
2026-05-06 23:05 31.67823 131.51147 33112 ft 584 kts 62°
2026-05-06 23:06 31.84537 131.83973 33142 ft 584 kts 62°
2026-05-06 23:06 32.01175 132.16951 33124 ft 586 kts 62°
2026-05-06 23:07 32.17307 132.50313 33120 ft 584 kts 68°
2026-05-06 23:07 32.31637 132.84834 33124 ft 587 kts 67°
2026-05-06 23:08 32.46170 133.19577 33124 ft 590 kts 67°
2026-05-06 23:08 32.60636 133.54540 33122 ft 593 kts 67°
2026-05-06 23:09 32.75015 133.89578 33120 ft 593 kts 67°
2026-05-06 23:09 32.86984 134.26174 33124 ft 589 kts 77°
2026-05-06 23:10 32.96113 134.63251 33121 ft 587 kts 77°
2026-05-06 23:10 33.02745 134.90429 33142 ft 589 kts 78°
2026-05-06 23:11 33.05016 134.99783 33163 ft 588 kts 78°
2026-05-06 23:11 33.07279 135.09172 33140 ft 590 kts 77°
2026-05-06 23:11 33.09534 135.16485 33144 ft 592 kts 64°
2026-05-06 23:12 33.20946 135.30339 33148 ft 590 kts 34°
2026-05-06 23:12 33.47259 135.53955 33157 ft 592 kts 33°
2026-05-06 23:13 33.73574 135.77939 33181 ft 595 kts 32°
2026-05-06 23:13 34.00028 136.01886 33183 ft 595 kts 32°
2026-05-06 23:14 34.26198 136.25751 33213 ft 586 kts 32°
2026-05-06 23:14 34.51898 136.49233 33193 ft 569 kts 32°
2026-05-06 23:15 34.76931 136.72136 33213 ft 562 kts 32°
2026-05-06 23:15 35.02503 136.94572 33198 ft 570 kts 29°
2026-05-06 23:16 35.06909 136.98300 33238 ft 572 kts 29°